Location: Chihuahua
(28.6330°N, 106.0830°W)
Time: 22:25:48
(UTC-07:00)

Daily predictions for brighter satellites

Satellite Brightness Start Highest point End
(mag) Time Altitude Azimuth Time Altitude Azimuth Time Altitude Azimuth
H-2A R/B 4.5 17:54:10 10° WSW 17:58:05 38° S 18:16:27 10° SE
SKYMED 2 4.2 18:14:44 10° N 18:19:02 64° WNW 18:23:18 10° SSW
Resurs 01 Rocket 3.1 18:17:17 10° ESE 18:20:19 18° ENE 18:23:21 10° NNE
Cosmos 1437 4.2 18:18:53 10° NNE 18:21:18 19° ENE 18:23:43 10° SE
Meteor 1-22 Rocket 4.4 18:16:13 10° SSE 18:21:22 44° E 18:26:24 10° NNE
Cosmos 1818 3.6 18:19:53 10° NNW 18:25:21 81° ENE 18:30:44 10° SSE
Aureole 2 Rocket 3.3 18:22:03 10° S 18:26:11 45° ESE 18:30:22 10° NNE
FREGAT/IRIS 3.8 18:23:50 10° SE 18:26:22 23° ENE 18:28:55 10° NNE
NOSS 3-2 (C) 3.7 18:20:52 10° S 18:26:30 47° ESE 18:32:28 10° NE
ALOS 4.1 18:27:02 10° E 18:28:55 12° ENE 18:30:49 10° NE
SJ-6B 3.2 18:25:19 10° SE 18:28:58 41° ENE 18:32:44 10° N
Delta 168 4.4 18:25:55 10° SW 18:30:28 39° SSE 18:36:49 11° E
APEX 4.3 18:23:56 10° NNW 18:30:32 86° WSW 18:35:39 10° SSE
Cosmos 1441 Rocket 3.2 18:27:14 10° N 18:30:53 56° E 18:34:34 10° SSE
Okean 3 Rocket 4.2 18:27:05 10° NNE 18:31:17 36° E 18:35:26 10° SSE
Cosmos 2219 Rocket 4.4 18:26:41 10° SW 18:31:29 29° WNW 18:36:21 10° N
Meteor 2-5 Rocket 3.6 18:27:22 10° N 18:32:58 75° E 18:38:30 10° SSE
Helios 1B rocket 2.8 18:30:19 10° NNE 18:34:11 40° E 18:38:03 10° S
Meteor 1-28 Rocket 3.2 18:35:40 10° N 18:39:23 86° W 18:43:05 10° SSW
Cosmos 2278 Rocket 2.2 18:34:31 10° N 18:40:07 61° ENE 18:45:41 10° SSE
Cosmos 1707 2.6 18:36:20 10° N 18:40:12 75° E 18:44:01 10° S
Meteor 1-24 Rocket 3.9 18:35:57 10° N 18:41:21 47° E 18:46:32 10° SSE
Intelsat 5-2 Rocket 4.4 18:33:45 10° WSW 18:42:49 42° S 18:45:44 15° ESE
Cosmos 1072 Rocket 4.5 18:37:34 10° S 18:43:34 59° E 18:49:33 10° NNE
METEOR-M 4.5 18:38:47 10° SE 18:43:49 44° ENE 18:48:52 10° N
Cosmos 1378 3.9 18:41:07 10° NNE 18:44:24 29° E 18:47:41 10° SE
Milstar 3 4.4 18:36:18 10° W 18:46:14 88° S 19:03:06 17° E
Cosmos 1624 Rocket 4.4 18:42:14 10° N 18:47:09 42° ENE 18:52:01 10° SE
HJ-1C 4.0 18:45:07 10° SE 18:48:09 33° ENE 18:51:13 10° N
Myojo/LAPS 2.8 18:49:40 10° W 18:51:59 59° S 18:53:37 21° ESE
OAO 3 Rocket 3.7 18:47:59 10° W 18:52:39 53° NNW 18:56:35 15° ENE
Meteor 1-29 3.0 18:49:21 10° NNE 18:52:48 56° E 18:56:13 10° S
Cosmos 1603 4.3 18:49:20 10° SSE 18:54:21 32° ESE 18:59:24 10° NE
GPS 2-05 Rocket1 2.7 18:53:52 10° WNW 18:57:15 85° NNE 18:58:59 27° ESE
ATLAS CENTAUR R/B 2.0 18:54:29 10° N 18:58:11 32° ENE 18:59:27 26° E
CZ-4C R/B 4.5 18:54:13 10° WSW 18:58:19 23° NW 19:02:44 10° N
Meteosat 1 Rocket2 4.4 19:02:06 10° SW 19:07:29 30° SSE 19:09:09 24° SE
Atlas Centaur 2 3.0 19:01:05 10° W 19:09:41 86° N 19:14:28 26° E
Helios 1A 2.9 19:06:27 10° SSE 19:10:34 65° ENE 19:14:43 10° N
Yuri Rocket 3.7 19:09:57 10° W 19:13:54 41° SSW 19:15:39 27° SE
FUSE 4.5 19:10:59 10° WSW 19:16:01 44° SSE 19:17:52 32° ESE
Cosmos 1452 Rocket 4.4 19:11:47 10° N 19:16:18 28° ENE 19:16:25 28° ENE
Cosmos 2034 Rocket 3.9 19:11:25 10° S 19:17:36 77° E 19:23:53 10° N
Cosmos 1464 Rocket 4.3 19:15:13 10° SSW 19:21:29 70° W 19:27:42 10° N
Meteor 2-12 Rocket 4.3 19:16:22 10° S 19:22:29 71° E 19:28:36 10° N
GPS 2-04 Rocket1 2.7 19:20:05 10° SW 19:23:23 51° SSE 19:23:23 51° SSE
Cosmos 468 4.4 19:19:52 10° S 19:25:04 67° ESE 19:30:17 10° NNE
SL-8 R/B 3.6 19:20:26 10° SW 19:25:08 63° SE 19:26:24 45° ENE
SEDSat Delta rocket 4.1 19:18:20 10° W 19:25:08 76° N 19:28:30 32° ENE
Elektron 1 4.1 19:23:31 10° SSW 19:26:21 54° S 19:26:21 54° S
ASTRO E2 2.9 19:24:37 10° W 19:28:37 59° N 19:29:15 51° NE
SeaSat 1 2.3 19:23:50 10° NNE 19:28:47 88° ESE 19:33:43 10° SSW
CZ-4B DEB 4.4 19:31:08 25° N 19:31:08 25° N 19:32:40 10° N
Cosmos 1766 Rocket 3.4 19:25:43 10° N 19:30:04 72° E 19:31:19 45° SSE
Cosmos 1953 2.4 19:26:56 10° S 19:30:55 73° W 19:34:54 10° N
SWIFT 3.9 19:30:08 10° WSW 19:33:31 23° S 19:33:42 23° S
CZ-2D R/B 4.3 19:36:40 34° NNE 19:36:40 34° NNE 19:39:05 10° N
In-Cosmos 22 4.1 19:29:29 10° N 19:35:16 77° E 19:39:15 21° SSE
Cosmos 1269 Rocket 3.8 19:39:25 10° S 19:44:41 79° ESE 19:49:58 10° NNE
BREEZE-M DEB (TANK) 3.6 19:28:09 10° NW 19:44:44 71° NE 19:46:05 53° E
ATLAS 5 CENTAUR R/B 3.3 19:45:24 10° WSW 19:49:42 35° NW 19:54:16 10° N
Cosmos-2242 4.1 19:49:04 10° SSW 19:53:11 44° W 19:57:22 10° N
Cosmos 1048 Rocket 3.9 19:48:30 10° S 19:58:30 14° NNE 19:59:08 10° NNE
Resurs 01 Rocket 3.5 19:52:41 10° SSW 19:56:31 29° W 20:00:22 10° NW
H-2A R/B 4.3 19:58:28 31° NNW 19:58:28 31° NNW 20:00:38 10° NNW
ALOS 3.1 20:04:54 40° SW 20:05:53 47° W 20:10:23 10° NNW
NOSS 3-3 (A) 4.4 20:10:16 10° NNW 20:17:59 89° ENE 20:18:49 75° SSE
NOSS 3-3 (C) 4.4 20:10:22 10° NNW 20:18:05 88° ENE 20:18:52 75° SE
CENTAUR R/B 3.6 20:17:34 10° SSW 20:20:10 29° SSW 20:20:10 29° SSW
Delta 168 4.4 20:21:25 10° WSW 20:26:52 64° SSW 20:26:52 64° SSW
ATLAS CENTAUR R/B 4.4 20:35:15 10° W 20:35:50 11° W 20:35:50 11° W
Atlas Centaur 2 3.7 20:51:34 10° W 20:57:08 41° WSW 20:57:08 41° WSW
